Orlando, FL

1:09 AM EST on January 17, 2017 (GMT -0500)
Executive

Weather History for KORL - November, 2012

Change the Weather History Date:

Friday, November 16, 2012

  Actual Average Record
Temperature  
Mean Temperature 64 °F -  
Max Temperature 70 °F 75 °F 84 °F (2011)
Min Temperature 57 °F 58 °F 45 °F (2007)
Degree Days  
Heating Degree Days 2    
Growing Degree Days 14 (Base 50)    
Moisture  
Dew Point 55 °F    
Average Humidity 78    
Maximum Humidity 94    
Minimum Humidity 57    
Precipitation  
Precipitation 0.00 in - - ()
Sea Level Pressure  
Sea Level Pressure 30.15 in    
Wind  
Wind Speed 8 mph (North)    
Max Wind Speed 13 mph    
Max Gust Speed -    
Visibility 10 miles    
Events      
Averages and records for this station are not official NWS values.
T = Trace of Precipitation, MM = Missing Value Source: NWS Daily Summary

Daily Weather History Graph

Daily Weather History Graph

Search for Another Location

Airport or City:

Trip Planner

Search our weather history database for the weather conditions in past years. The results will help you decide how hot, cold, wet, or windy it might be!

Date:

Astronomy

Nov. 16, 2012 Rise Set
Actual Time 6:49 AM EST 5:31 PM EST
Civil Twilight 6:24 AM EST 5:56 PM EST
Nautical Twilight 5:55 AM EST 6:24 PM EST
Astronomical Twilight 5:27 AM EST 6:52 PM EST
Moon 9:38 AM EST (11/16) 8:32 PM EST (11/16)
Length of Visible Light 11h 32m
Length of Day
10h 42m
Waxing Crescent, 11% of the Moon is Illuminated
Nov 16
Waxing Crescent
Nov 20
First Quarter
Nov 28
Full
Dec 6
Last Quarter
Dec 13
New

Hourly Weather History & Observations

Time (EST) Temp. Dew Point Humidity Pressure Visibility Wind Dir Wind Speed Gust Speed Precip Events Conditions
12:53 AM 60.1 °F 55.9 °F 86% 30.15 in 10.0 mi North 5.8 mph - N/A   Overcast
1:53 AM 60.1 °F 55.9 °F 86% 30.15 in 10.0 mi North 8.1 mph - N/A   Overcast
2:53 AM 59.0 °F 55.0 °F 87% 30.15 in 10.0 mi North 6.9 mph - N/A   Overcast
3:33 AM 57.2 °F 55.4 °F 94% 30.14 in 10.0 mi NNW 5.8 mph - N/A   Scattered Clouds
3:53 AM 57.9 °F 55.0 °F 90% 30.15 in 10.0 mi North 5.8 mph - N/A   Scattered Clouds
4:22 AM 57.2 °F 55.4 °F 94% 30.13 in 10.0 mi NNW 5.8 mph - N/A   Mostly Cloudy
4:53 AM 57.0 °F 54.0 °F 89% 30.15 in 10.0 mi North 6.9 mph - N/A   Overcast
5:53 AM 57.0 °F 54.0 °F 89% 30.16 in 10.0 mi NNE 11.5 mph - N/A   Overcast
6:53 AM 57.0 °F 54.0 °F 89% 30.17 in 10.0 mi North 10.4 mph - N/A   Overcast
7:53 AM 57.9 °F 54.0 °F 87% 30.18 in 10.0 mi North 9.2 mph - N/A   Overcast
8:53 AM 59.0 °F 53.1 °F 81% 30.19 in 10.0 mi North 10.4 mph - N/A   Mostly Cloudy
9:21 AM 60.8 °F 53.6 °F 77% 30.17 in 10.0 mi North 9.2 mph - N/A   Scattered Clouds
9:53 AM 64.0 °F 53.1 °F 67% 30.19 in 10.0 mi North 12.7 mph - N/A   Partly Cloudy
10:53 AM 66.9 °F 54.0 °F 63% 30.19 in 10.0 mi NNE 9.2 mph - N/A   Mostly Cloudy
11:53 AM 68.0 °F 54.0 °F 61% 30.18 in 10.0 mi NNE 8.1 mph - N/A   Overcast
12:53 PM 68.0 °F 54.0 °F 61% 30.16 in 10.0 mi North 9.2 mph - N/A   Mostly Cloudy
1:53 PM 70.0 °F 54.0 °F 57% 30.14 in 10.0 mi NE 8.1 mph - N/A   Overcast
2:53 PM 68.0 °F 54.0 °F 61% 30.13 in 10.0 mi NNE 8.1 mph - N/A   Overcast
3:53 PM 68.0 °F 55.0 °F 63% 30.14 in 10.0 mi North 10.4 mph - N/A   Overcast
4:35 PM 66.2 °F 55.4 °F 68% 30.12 in 10.0 mi North 10.4 mph - N/A   Overcast
4:53 PM 66.0 °F 55.0 °F 68% 30.14 in 10.0 mi NE 8.1 mph - N/A   Overcast
5:29 PM 64.4 °F 55.4 °F 73% 30.12 in 10.0 mi NE 10.4 mph - N/A   Mostly Cloudy
5:53 PM 64.0 °F 55.0 °F 73% 30.14 in 10.0 mi NNE 8.1 mph - N/A   Mostly Cloudy
6:53 PM 63.0 °F 55.9 °F 78% 30.15 in 10.0 mi NNE 8.1 mph - N/A   Mostly Cloudy
7:53 PM 62.1 °F 55.0 °F 78% 30.16 in 10.0 mi North 9.2 mph - N/A   Overcast
8:13 PM 62.6 °F 55.4 °F 77% 30.14 in 10.0 mi North 8.1 mph - N/A   Overcast
8:53 PM 62.1 °F 55.9 °F 80% 30.16 in 10.0 mi NNW 8.1 mph - N/A   Overcast
9:53 PM 61.0 °F 55.9 °F 83% 30.17 in 10.0 mi North 6.9 mph - N/A   Overcast
10:53 PM 61.0 °F 55.9 °F 83% 30.16 in 10.0 mi North 9.2 mph - N/A   Overcast
11:53 PM 61.0 °F 55.9 °F 83% 30.15 in 9.0 mi North 9.2 mph - N/A   Overcast